x

Chambers Island, Wi (cbrw3) Weather Station

2:40pm - Sat 28th Feb 2015 All times are CST. -6 hours from GMT.

  • Wind
    11mph, 21mph gusts
  • Air Temp 18°f
  • Sea Pressure 1033.9mb
  • Chambers Island, Wi
  • Chambers Island, Wi

More Historic Weather Station data

Upgrade to MSW Pro to gain access to the past 30 days of data for over 8000 Wavebouys and Weather Stations around the globe.

Join Pro

Comparision Forecast

View Surf forecast
   
Sat 02/28 2:40pm 11 21 mph 1033.9mb 18f
2:30pm 11 21 mph 1033.9mb 18f
2:20pm 10 22 mph 1034.2mb 17f
2:10pm 10 17 mph 1034.2mb 17f
2:00pm 11 20 mph 1033.9mb 17f
1:40pm 8 18 mph 1034.5mb 16f
1:30pm 11 17 mph 1034.9mb 15f
1:20pm 9 15 mph 1034.9mb 15f
1:10pm 9 18 mph 1035.2mb 14f
1:00pm 11 18 mph 1035.2mb 14f
12:40pm 8 17 mph 1035.6mb 14f
12:30pm 10 16 mph 1035.6mb 13f
12:20pm 9 17 mph 1035.6mb 13f
12:10pm 9 16 mph 1035.9mb 13f
12:00pm 9 15 mph 1036.2mb 12f
11:40am 8 14 mph 1036.2mb 12f
11:30am 8 16 mph 1036.2mb 11f
11:20am 8 14 mph 1036.6mb 10f
11:10am 6 11 mph 1036.9mb 11f
11:00am 7 13 mph 1036.6mb 11f
10:40am 8 11 mph 1036.9mb 10f
10:30am 6 11 mph 1036.9mb 11f
10:20am 8 14 mph 1036.9mb 10f
10:10am 8 14 mph 1036.9mb 8f
10:00am 9 13 mph 1036.9mb 8f
9:40am 5 13 mph 1036.9mb 8f
9:30am 6 14 mph 1036.9mb 8f
9:20am 8 14 mph 1036.9mb 7f
9:10am 10 14 mph 1036.9mb 6f
9:00am 7 15 mph 1036.9mb 6f
8:40am 10 15 mph 1036.9mb 5f
8:30am 9 17 mph 1036.6mb 5f
8:20am 13 18 mph 1036.6mb 4f
8:10am 10 16 mph 1036.6mb 4f
8:00am 9 14 mph 1036.6mb 4f
7:40am 9 16 mph 1036.2mb 4f
7:30am 10 15 mph 1036.2mb 4f
7:20am 10 15 mph 1035.9mb 3f
7:10am 8 13 mph 1035.9mb 3f
7:00am 7 11 mph 1035.9mb 3f
6:40am 6 13 mph 1035.9mb 1f
6:30am 7 9 mph 1035.6mb 2f
6:20am 5 11 mph 1035.6mb 1f
6:10am 6 10 mph 1035.6mb 1f
6:00am 7 9 mph 1035.6mb 2f
5:40am 5 11 mph 1035.6mb 2f
5:30am 7 11 mph 1035.6mb 2f
5:20am 6 11 mph 1035.6mb 2f
5:10am 6 9 mph 1035.6mb 2f
5:00am 6 11 mph 1035.6mb 3f
4:40am 7 13 mph 1035.2mb 4f
4:30am 8 11 mph 1034.9mb 4f
4:20am 8 11 mph 1034.9mb 4f
4:10am 6 11 mph 1034.9mb 4f
4:00am 8 11 mph 1034.9mb 4f
3:40am 5 10 mph 1034.5mb 4f
3:30am 6 10 mph 1034.5mb 4f
3:20am 5 9 mph 1034.5mb 3f
3:10am 6 8 mph 1034.5mb 4f
3:00am 7 10 mph 1034.5mb 5f
2:40am 6 10 mph 1034.5mb 6f
2:30am 7 11 mph 1034.5mb 6f
2:20am 9 13 mph 1034.5mb 7f
2:10am 8 13 mph 1034.5mb 7f
2:00am 7 13 mph 1034.5mb 7f
1:40am 8 13 mph 1034.5mb 7f
1:30am 8 13 mph 1034.2mb 7f
1:20am 8 15 mph 1034.2mb 8f
1:10am 8 14 mph 1034.5mb 8f
1:00am 8 14 mph 1034.5mb 8f
12:40am 8 13 mph 1034.2mb 8f
12:30am 8 11 mph 1033.9mb 8f
12:20am 7 11 mph 1033.9mb 8f
12:10am 7 10 mph 1033.9mb 8f
12:00am 6 13 mph 1033.9mb 8f
Fri 02/27 11:40pm 7 13 mph 1033.9mb 9f
11:30pm 8 14 mph 1033.9mb 9f
11:20pm 9 14 mph 1033.5mb 10f
11:10pm 8 15 mph 1033.5mb 10f
11:00pm 8 14 mph 1033.5mb 10f
10:40pm 9 13 mph 1033.5mb 10f
10:30pm 9 15 mph 1033.2mb 10f
10:20pm 7 13 mph 1033.5mb 10f
10:10pm 7 14 mph 1033.5mb 10f
10:00pm 8 15 mph 1033.2mb 10f
9:40pm 8 15 mph 1033.2mb 11f
9:30pm 7 13 mph 1033.2mb 11f
9:20pm 7 13 mph 1033.2mb 11f
9:10pm 8 15 mph 1032.8mb 11f
9:00pm 7 11 mph 1032.8mb 11f
8:40pm 6 11 mph 1032.8mb 12f
8:30pm 8 14 mph 1032.8mb 12f
8:20pm 9 15 mph 1032.5mb 12f
8:10pm 8 17 mph 1032.5mb 12f
8:00pm 8 15 mph 1032.5mb 13f
7:40pm 8 17 mph 1032.2mb 13f
7:30pm 9 16 mph 1032.2mb 14f
7:20pm 8 16 mph 1032.2mb 13f
7:10pm 9 14 mph 1031.8mb 13f
7:00pm 9 16 mph 1031.8mb 14f
6:40pm 7 15 mph 1031.8mb 14f
6:30pm 8 14 mph 1031.5mb 14f
6:20pm 7 13 mph 1031.5mb 13f
6:10pm 6 13 mph 1031.5mb 13f
6:00pm 8 14 mph 1031.2mb 13f
5:40pm 7 14 mph 1031.2mb 14f
5:30pm 8 15 mph 1031.2mb 14f
5:20pm 8 15 mph 1031.2mb 14f
5:10pm 10 15 mph 1031.2mb 14f
5:00pm 8 16 mph 1031.2mb 15f
4:40pm 8 14 mph 1031.2mb 15f
4:30pm 9 15 mph 1031.2mb 15f
4:20pm 7 16 mph 1031.2mb 16f
4:10pm 8 16 mph 1031.2mb 16f
4:00pm 8 15 mph 1031.2mb 16f
3:40pm 14 18 mph 1031.2mb 15f
3:30pm 8 14 mph 1031.5mb 15f
3:20pm 10 17 mph 1031.2mb 15f
3:10pm 7 16 mph 1031.5mb 16f
3:00pm 6 21 mph 1031.5mb 16f
2:50pm 9 17 mph 1031.2mb 15f
2:40pm 11 20 mph 1031.5mb 15f
2:30pm 9 18 mph 1031.2mb 15f
2:20pm 10 17 mph 1031.5mb 15f
2:10pm 10 17 mph 1031.5mb 15f
2:00pm 7 15 mph 1031.5mb 16f
1:50pm 9 15 mph 1031.5mb 15f
1:40pm 9 17 mph 1031.5mb 15f
1:30pm 9 15 mph 1031.5mb 15f
1:20pm 6 16 mph 1031.5mb 15f
1:10pm 9 14 mph 1031.5mb 14f
1:00pm 9 14 mph 1031.5mb 13f
12:50pm 9 15 mph 1031.5mb 13f
12:40pm 7 16 mph 1031.8mb 12f
12:30pm 8 17 mph 1031.8mb 12f
12:20pm 7 14 mph 1031.8mb 12f
12:10pm 9 16 mph 1032.2mb 11f
12:00pm 7 15 mph 1032.2mb 11f
11:50am 8 17 mph 1032.2mb 9f
11:40am 8 11 mph 1032.2mb 10f
11:30am 8 13 mph 1032.2mb 9f
11:20am 5 14 mph 1032.2mb 10f
11:10am 8 11 mph 1032.2mb 8f
11:00am 6 10 mph 1032.2mb 8f
10:50am 5 13 mph 1032.2mb 9f
10:40am 6 9 mph 1032.2mb 9f
10:30am 6 9 mph 1032.2mb 8f
10:20am 6 11 mph 1032.2mb 8f
10:10am 6 9 mph 1032.2mb 7f
10:00am 6 9 mph 1032.2mb 7f
9:50am 7 9 mph 1032.2mb 6f
9:40am 6 9 mph 1032.2mb 6f
9:30am 6 10 mph 1032.2mb 4f
9:20am 7 10 mph 1032.2mb 4f
9:10am 6 9 mph 1032.2mb 4f
9:00am 6 9 mph 1032.2mb 3f
8:50am 6 9 mph 1032.2mb 3f
8:40am 3 7 mph 1032.2mb 3f
8:30am 3 9 mph 1032.2mb 3f
8:20am 6 9 mph 1032.2mb 2f
8:10am 5 8 mph 1031.8mb 2f
8:00am 6 7 mph 1031.8mb 1f
7:50am 5 8 mph 1031.5mb -
7:40am 3 6 mph 1031.5mb -
7:30am 3 6 mph 1031.5mb -
7:20am 3 6 mph 1031.2mb -1f
7:10am 3 7 mph 1030.8mb -1f
7:00am 3 7 mph 1030.8mb -1f
6:50am 3 7 mph 1030.8mb -2f
6:40am 6 8 mph 1030.5mb -2f
6:30am 5 8 mph 1030.5mb -2f
6:20am 5 7 mph 1030.5mb -2f
6:10am 3 6 mph 1030.5mb -2f
6:00am 3 8 mph 1030.5mb -2f
5:50am 2 7 mph 1030.5mb -2f
5:40am 3 6 mph 1030.5mb -2f
5:30am  -  6 mph 1030.5mb -2f
5:20am 2 6 mph 1030.1mb -2f
5:10am 2 6 mph 1029.8mb -2f
5:00am 2 8 mph 1029.8mb -2f
4:50am 5 9 mph 1029.8mb -2f
4:40am 2 7 mph 1029.8mb -2f
4:30am 2 6 mph 1029.8mb -2f
4:20am 3 6 mph 1029.5mb -2f
4:10am 6 8 mph 1029.5mb -1f
4:00am 5 9 mph 1029.5mb -1f
3:50am 5 8 mph 1029.5mb -1f
3:40am 5 7 mph 1029.5mb -1f
3:30am 5 7 mph 1029.5mb -
3:20am 3 7 mph 1029.5mb -1f
3:10am 5 7 mph 1029.1mb -1f
3:00am 5 8 mph 1029.1mb -
2:50am 6 8 mph 1029.1mb -
2:40am 6 8 mph 1029.1mb -
2:30am 5 9 mph 1029.1mb -1f
2:20am 6 7 mph 1029.1mb -1f
2:10am 5 7 mph 1029.1mb -1f
2:00am 5 8 mph 1029.1mb -1f
1:50am 3 6 mph 1029.1mb -3f
1:40am 5
mph
1029.1mb -2f
1:30am 5
mph
1029.1mb -1f
1:20am 3 5 mph 1029.1mb -1f
1:10am 3 5 mph 1029.1mb -
1:00am 3 5 mph 1029.1mb -1f
12:50am 3 5 mph 1028.8mb -6f
12:40am 2 3 mph 1029.1mb -5f
12:30am 2 3 mph 1029.1mb -5f
12:20am 2 5 mph 1029.1mb -6f
12:10am 2 3 mph 1029.1mb -4f
12:00am 3 5 mph 1029.1mb -1f
Thu 02/26 11:50pm 3 5 mph 1029.1mb -
11:40pm 3 6 mph 1029.1mb 1f
11:30pm 2 7 mph 1029.1mb -
11:20pm 3 7 mph 1029.1mb -1f
11:10pm 3 6 mph 1029.1mb 1f
11:00pm 3 6 mph 1029.1mb 1f
10:50pm 3 8 mph 1029.1mb 1f
10:40pm 3 9 mph 1029.1mb 2f
10:30pm 3 7 mph 1028.8mb 2f
10:20pm 5 8 mph 1028.8mb 3f
10:10pm 5 7 mph 1028.8mb 2f
10:00pm 5 7 mph 1028.8mb 2f
9:50pm 3 6 mph 1028.8mb 3f
9:40pm 3 7 mph 1028.8mb 3f
9:30pm 3 7 mph 1028.8mb 3f
9:20pm 5 7 mph 1028.4mb 4f
9:10pm 2 8 mph 1028.4mb 4f
9:00pm 5 7 mph 1028.1mb 5f
8:50pm 3 8 mph 1028.1mb 3f
8:40pm 6 8 mph 1027.8mb 3f
8:30pm 5 8 mph 1027.8mb 2f
8:20pm 6 8 mph 1027.8mb 1f
8:10pm 5 6 mph 1027.8mb -4f
8:00pm 3 5 mph 1027.8mb -5f
7:50pm  -  3 mph 1027.8mb -4f
7:40pm 2
mph
1027.8mb -3f
7:30pm  -  2 mph 1027.8mb -2f
7:20pm  -  1 mph 1027.8mb -1f
7:10pm  -  mph 1027.8mb -2f
7:00pm  -  3 mph 1027.4mb -1f
6:50pm 2 3 mph 1027.4mb -
6:40pm 3 5 mph 1027.4mb 1f
6:30pm 3
mph
1027.4mb 1f
6:20pm 2 5 mph 1027.4mb 2f
6:10pm 3
mph
1027.4mb 2f
6:00pm 2 3 mph 1027.4mb 3f
5:50pm 1 2 mph 1027.4mb 4f
5:40pm  -  2 mph 1027.1mb 5f
5:30pm 1 2 mph 1026.8mb 6f
5:20pm  -  2 mph 1026.8mb 7f
5:10pm 2 3 mph 1026.8mb 7f
5:00pm 3 5 mph 1026.8mb 8f
4:50pm 3 5 mph 1026.8mb 8f
4:40pm 5 6 mph 1026.8mb 8f
4:30pm 5 6 mph 1026.4mb 8f
4:20pm 3 6 mph 1026.4mb 8f
4:10pm 5 7 mph 1026.4mb 8f
4:00pm 5 7 mph 1026.4mb 8f
3:50pm 6 8 mph 1026.4mb 7f
3:40pm 5 7 mph 1026.4mb 7f
3:30pm 6 7 mph 1026.4mb 7f
3:20pm 6 10 mph 1026.4mb 7f
3:10pm 5 7 mph 1026.4mb 7f
3:00pm 5 8 mph 1026.4mb 7f
2:50pm 6 8 mph 1026.4mb 7f
2:40pm 6 8 mph 1026.4mb 7f
2:30pm 5 8 mph 1026.4mb 7f
2:20pm 3 6 mph 1026.4mb 7f
2:10pm 3 7 mph 1026.4mb 7f
2:00pm 2 8 mph 1026.4mb 7f
1:50pm 6 8 mph 1026.4mb 6f
1:40pm 6 9 mph 1026.4mb 6f
1:30pm 6 9 mph 1026.4mb 6f
1:20pm 5 8 mph 1026.8mb 6f
1:10pm 5 7 mph 1026.8mb 6f
1:00pm 5 7 mph 1026.8mb 7f
12:50pm 6 8 mph 1026.8mb 7f
12:40pm 6 7 mph 1026.8mb 8f
12:30pm 6 7 mph 1026.8mb 7f
12:20pm 3 8 mph 1027.1mb 6f
12:10pm 6 8 mph 1027.1mb 5f
12:00pm 7 9 mph 1027.1mb 7f
11:50am 6 10 mph 1027.1mb 5f
11:40am 9 11 mph 1027.1mb 4f
11:30am 10 13 mph 1027.1mb 4f
11:20am 10 13 mph 1027.4mb 4f
11:10am 10 13 mph 1027.1mb 4f
11:00am 10 11 mph 1027.1mb 4f
10:50am 9 11 mph 1027.1mb 5f
10:40am 9 11 mph 1027.1mb 7f
10:30am 9 11 mph 1027.1mb 6f
10:20am 10 14 mph 1027.1mb 6f
10:10am 11 14 mph 1027.1mb 6f
10:00am 11 14 mph 1026.8mb 5f
9:50am 13 15 mph 1026.8mb 5f
9:40am 11 14 mph 1026.8mb 4f
9:30am 13 14 mph 1026.8mb 4f
9:20am 13 14 mph 1026.8mb 4f
9:10am 11 15 mph 1026.8mb 3f
9:00am 13 14 mph 1026.4mb 3f
8:50am 10 13 mph 1026.4mb 2f
8:40am 11 14 mph 1026.4mb 2f
8:30am 13 15 mph 1026.1mb 1f
8:20am 13 15 mph 1026.1mb -
8:10am 13 14 mph 1026.1mb -
8:00am 10 15 mph 1026.1mb -
7:50am 14
mph
1025.7mb -1f
7:40am 13 14 mph 1025.7mb -1f
7:30am 11 14 mph 1025.7mb -1f
7:20am 13 14 mph 1025.4mb -2f
7:10am 13 14 mph 1025.4mb -2f
7:00am 10 15 mph 1025.1mb -3f
6:50am 11 14 mph 1025.1mb -4f
6:40am 10 14 mph 1024.7mb -4f
6:30am 11 15 mph 1024.7mb -4f
6:20am 11 15 mph 1024.7mb -4f
6:10am 11 14 mph 1024.7mb -4f
6:00am 10 14 mph 1024.4mb -4f
5:50am 10 14 mph 1024.4mb -4f
5:40am 10 14 mph 1024mb -4f
5:30am 11 14 mph 1024mb -3f
5:20am 11 13 mph 1024mb -3f
5:10am 11 14 mph 1023.7mb -3f
5:00am 11 14 mph 1023.7mb -3f
4:50am 13 14 mph 1023.7mb -3f
4:40am 11 14 mph 1023.7mb -3f
4:30am 13 14 mph 1023.7mb -3f
4:20am 10 13 mph 1023.7mb -3f
4:10am 11 13 mph 1023.7mb -3f
4:00am 11 13 mph 1023.4mb -3f
3:50am 11 13 mph 1023.4mb -3f
3:40am 10 13 mph 1023.4mb -2f
3:30am 11 13 mph 1023.4mb -2f
3:20am 10 13 mph 1023.4mb -2f
3:10am 11 13 mph 1023.4mb -2f
3:00am 11 14 mph 1023.4mb -2f
2:50am 8 11 mph 1023.4mb -2f
2:40am 10 11 mph 1023.7mb -2f
2:30am 10 11 mph 1023.4mb -2f
2:20am 9 11 mph 1023.4mb -1f
2:10am 10
mph
1023.4mb -1f
2:00am 9 10 mph 1023.7mb -1f
1:50am 9 10 mph 1023.7mb -1f
1:40am 10 13 mph 1023.4mb -1f
1:30am 11 14 mph 1023.4mb -1f
1:20am 13 15 mph 1023.4mb -1f
1:10am 13 14 mph 1023.4mb -
1:00am 13 14 mph 1023mb -
12:50am 11 13 mph 1023mb -
12:40am 13 14 mph 1023mb -
12:30am 13 15 mph 1023mb 1f
12:20am 14 16 mph 1023mb 1f
12:10am 14 15 mph 1022.7mb 1f
12:00am 14 15 mph 1022.7mb 1f
Wed 02/25 11:50pm 14 17 mph 1022.7mb 1f
11:40pm 15 16 mph 1022.7mb 2f
11:30pm 14 16 mph 1022.7mb 2f
11:20pm 14 15 mph 1022.7mb 2f
11:10pm 13 16 mph 1022.7mb 2f
11:00pm 13 16 mph 1022.7mb 3f
10:50pm 15 17 mph 1022.4mb 3f
10:40pm 16 20 mph 1022.4mb 3f
10:30pm 17 21 mph 1022.7mb 3f
10:20pm 20 23 mph 1022.4mb 3f
10:10pm 20 23 mph 1022mb 3f
10:00pm 18 23 mph 1022mb 4f
9:50pm 21 24 mph 1022mb 4f
9:40pm 20 23 mph 1021.7mb 4f
9:30pm 22 23 mph 1021.7mb 4f
9:20pm 20 23 mph 1021.3mb 4f
9:10pm 22 25 mph 1021.3mb 4f
9:00pm 22 24 mph 1021mb 5f
8:50pm 22 24 mph 1021mb 5f
8:40pm 21 24 mph 1021mb 5f
8:30pm 20 22 mph 1021mb 6f
8:20pm 20 22 mph 1020.7mb 6f
8:10pm 20 22 mph 1020.7mb 6f
8:00pm 20 23 mph 1020.3mb 7f
7:50pm 20 23 mph 1020.3mb 7f
7:40pm 18 20 mph 1020mb 8f
7:30pm 20 23 mph 1020mb 8f
7:20pm 13 15 mph 1020mb 9f
7:10pm 3 7 mph 1019.6mb 5f
7:00pm 2 3 mph 1019.6mb 3f
6:50pm  -  1 mph 1019.3mb 3f
6:40pm  -  1 mph 1019.3mb 2f
6:30pm  -  1 mph 1019mb 2f
6:20pm  -  1 mph 1019mb 3f
6:10pm  -  mph 1018.6mb 4f
6:00pm  -  2 mph 1018.6mb 5f
5:50pm 2
mph
1018.3mb 5f
5:40pm 1 3 mph 1018.3mb 6f
5:30pm 2 3 mph 1018.3mb 7f
5:20pm 3 6 mph 1017.9mb 7f
5:10pm 5 6 mph 1017.9mb 8f
5:00pm 3 5 mph 1017.9mb 8f
4:50pm 2 5 mph 1017.9mb 8f
4:40pm 3 7 mph 1017.9mb 8f
4:30pm 5 7 mph 1017.9mb 8f
4:20pm 6 8 mph 1017.6mb 7f
4:10pm 6 9 mph 1017.9mb 8f
4:00pm 8 9 mph 1017.6mb 7f
3:50pm 7 9 mph 1017.6mb 7f
3:40pm 6 9 mph 1017.6mb 7f
3:30pm 7 9 mph 1017.3mb 8f
3:20pm 7 9 mph 1017.3mb 7f
3:10pm 7 11 mph 1017.3mb 7f
3:00pm 8 9 mph 1017.3mb 7f
2:50pm 7 10 mph 1017.3mb 7f
2:40pm 8 10 mph 1017.3mb 7f
2:30pm 6 8 mph 1017.3mb 7f
2:20pm 6 8 mph 1017.3mb 8f
2:10pm 7 8 mph 1017.3mb 8f
2:00pm 8 9 mph 1017.3mb 7f
1:50pm 6 8 mph 1017.3mb 8f
1:40pm 3 6 mph 1017.3mb 9f
1:30pm 3 6 mph 1017.3mb 8f
1:20pm 2 5 mph 1017.3mb 10f
1:10pm 2 5 mph 1017.3mb 10f
1:00pm 2 5 mph 1017.3mb 10f
12:50pm  -  3 mph 1017.3mb 11f
12:40pm 1 5 mph 1017.3mb 11f
12:30pm 5 7 mph 1017.3mb 10f
12:20pm 3 6 mph 1017.3mb 11f
12:10pm 5 8 mph 1017.6mb 14f
12:00pm 5 7 mph 1017.6mb 13f
11:50am 5 6 mph 1017.6mb 16f
11:40am 3 8 mph 1017.9mb 13f
11:30am 6 8 mph 1017.6mb 10f
11:20am 5 8 mph 1017.6mb 11f
11:10am 8 9 mph 1017.3mb 10f
11:00am 5 9 mph 1017.6mb 11f
10:50am 7 9 mph 1017.3mb 10f
10:40am 7 9 mph 1016.9mb 10f
10:30am 9 11 mph 1016.9mb 10f
10:20am 7 10 mph 1016.9mb 9f
10:10am 7 10 mph 1016.9mb 9f
10:00am 3 7 mph 1016.9mb 13f
9:50am 6 8 mph 1016.9mb 8f
9:40am 6 9 mph 1016.9mb 8f
9:30am 8 9 mph 1016.6mb 7f
9:20am 7 9 mph 1016.6mb 7f
9:10am 8 11 mph 1016.6mb 6f
9:00am 8 10 mph 1016.6mb 6f
8:50am 8 10 mph 1016.6mb 6f
8:40am 7 10 mph 1016.3mb 6f
8:30am 6 10 mph 1016.6mb 7f
8:20am 5 7 mph 1016.3mb 7f
8:10am 5 9 mph 1016.3mb 4f
8:00am 2 8 mph 1016.3mb 6f
7:50am 6 8 mph 1015.9mb 4f
7:40am 5 8 mph 1015.6mb 4f
7:30am 5 7 mph 1015.2mb 4f
7:20am 3 8 mph 1015.2mb 2f
7:10am 1 6 mph 1014.9mb 1f
7:00am 2 6 mph 1014.9mb 1f
6:50am 2 7 mph 1014.9mb -1f
6:40am 2 7 mph 1014.6mb -1f
6:30am 1 6 mph 1014.6mb -2f
6:20am 2 7 mph 1014.6mb -1f
6:10am 3 8 mph 1014.2mb -1f
6:00am 3 8 mph 1014.2mb -1f
5:50am 3 7 mph 1014.2mb -1f
5:40am 3 5 mph 1013.9mb -1f
5:30am 5 8 mph 1013.9mb -
5:20am 2 6 mph 1013.9mb -1f
5:10am 2 6 mph 1013.9mb -1f
5:00am 2 6 mph 1013.5mb -
4:50am 2 6 mph 1013.5mb -
4:40am 3 6 mph 1013.5mb -
4:30am 3 7 mph 1013.5mb -
4:20am 1 6 mph 1013.2mb -
4:10am 2 6 mph 1013.2mb 1f
4:00am 2 6 mph 1013.2mb -
3:50am 2 6 mph 1013.2mb 1f
3:40am 3 7 mph 1012.9mb 1f
3:30am 2 6 mph 1012.9mb 1f
3:20am 3 7 mph 1012.9mb 1f
3:10am 2 9 mph 1012.9mb 1f
3:00am 6 8 mph 1012.5mb 1f
2:50am 3 8 mph 1012.9mb 2f
2:40am 3 8 mph 1012.5mb 2f
2:30am 3 6 mph 1012.2mb 2f
2:20am 2 7 mph 1012.5mb 2f
2:10am 3 8 mph 1012.2mb 2f
2:00am 3 8 mph 1012.2mb 2f
1:50am 2 9 mph 1011.9mb 2f
1:40am 8 11 mph 1011.9mb 3f
1:30am 7 11 mph 1011.5mb 3f
1:20am 8 11 mph 1011.5mb 3f
1:10am 7 11 mph 1011.5mb 3f
1:00am 6 10 mph 1011.2mb 3f
12:50am 5 9 mph 1011.2mb 3f
12:40am 6 13 mph 1011.5mb 4f
12:30am 10 16 mph 1011.5mb 4f
12:20am 9 14 mph 1011.2mb 4f
12:10am 13 15 mph 1010.8mb 4f
12:00am 10 14 mph 1010.8mb 4f
Tue 02/24 11:50pm 9 13 mph 1010.8mb 4f
11:40pm 6 13 mph 1010.8mb 5f
11:30pm 10 16 mph 1010.5mb 5f
11:20pm 13 20 mph 1010.5mb 5f
11:10pm 18 22 mph 1010.2mb 5f
11:00pm 18 24 mph 1010.2mb 5f
10:50pm 18 24 mph 1010.2mb 6f
10:40pm 20 25 mph 1009.8mb 6f
10:30pm 18 25 mph 1009.8mb 6f
10:20pm 21 24 mph 1009.8mb 7f
10:10pm 14 22 mph 1009.8mb 7f
10:00pm 16 21 mph 1009.5mb 7f
9:50pm 17 24 mph 1009.5mb 7f